"America/Chicago Time","Lifetime Energy (kWh)","Power (W)","AC Volts RMS (V) ","AC Amps RMS (mA)","Grid Frequency (Hz)","Inverter Temperature (C)"
"06/08/12 05:52:58","105.8066","0.0","213.65","0","60.03","18"
"06/08/12 05:57:55","105.8067","0.0","212.96","0","60.0","19"
"06/08/12 06:02:55","105.8069","10.6","213.61","41","60.03","20"
"06/08/12 06:07:54","105.8073","0.0","213.18","0","60.03","20"
"06/08/12 06:12:55","105.8077","13.3","212.37","1","60.0","20"
"06/08/12 06:17:56","105.8082","0.0","213.76","0","60.0","21"
"06/08/12 06:22:55","105.8087","10.7","216.25","4","60.03","21"
"06/08/12 06:27:54","105.8094","15.5","210.64","5","60.0","22"
"06/08/12 06:32:55","105.8102","15.2","213.02","1","60.03","22"
"06/08/12 06:37:56","105.8113","15.2","213.74","3","60.0","22"
"06/08/12 06:42:55","105.8126","10.4","213.13","25","60.0","23"
"06/08/12 06:47:54","105.8141","13.6","213.66","22","60.03","23"
"06/08/12 06:52:54","105.8159","26.3","215.18","57","60.03","23"
"06/08/12 06:57:54","105.818","32.1","214.31","86","60.0","24"
"06/08/12 07:02:55","105.8204","27.7","214.52","176","60.0","24"
"06/08/12 07:07:55","105.823","40.7","213.42","110","60.03","25"
"06/08/12 07:12:54","105.8259","34.2","214.33","207","60.03","25"
"06/08/12 07:17:55","105.8292","38.0","213.2","241","60.0","26"
"06/08/12 07:22:56","105.8328","45.9","213.92","222","60.0","26"
"06/08/12 07:27:54","105.8368","63.6","214.14","177","60.03","27"
"06/08/12 07:32:55","105.8409","44.2","214.78","319","60.0","27"
"06/08/12 07:37:55","105.8455","66.8","214.46","336","60.0","28"
"06/08/12 07:42:55","105.8506","66.9","214.23","341","60.07","28"
"06/08/12 07:47:55","105.8563","80.3","214.47","399","60.0","29"
"06/08/12 07:52:55","105.8627","87.9","214.6","433","60.0","29"
"06/08/12 07:57:55","105.8698","92.5","214.99","451","60.0","30"
"06/08/12 08:02:55","105.8769","94.4","215.26","458","60.0","31"
"06/08/12 08:07:54","105.8843","95.6","214.43","465","60.0","32"
"06/08/12 08:17:56","105.8978","62.6","213.39","321","60.0","32"
"06/08/12 08:22:56","105.9015","39.1","213.03","223","60.0","32"
"06/08/12 08:27:56","105.904","28.1","212.56","155","60.03","32"
"06/08/12 08:32:55","105.9067","34.3","213.76","88","60.03","31"
"06/08/12 08:37:56","105.9104","58.7","214.05","76","60.03","31"
"06/08/12 08:42:56","105.9152","73.2","214.0","368","60.0","31"
"06/08/12 08:47:55","105.9216","85.7","213.66","420","60.0","31"
"06/08/12 08:52:56","105.9286","90.9","214.02","444","60.0","31"
"06/08/12 08:57:55","105.9348","68.6","214.09","350","60.07","31"
"06/08/12 09:02:54","105.941","92.8","215.04","453","60.03","31"
"06/08/12 09:07:55","105.9498","119.2","214.94","564","60.0","32"
"06/08/12 09:12:56","105.9592","97.6","214.36","476","60.03","32"
"06/08/12 09:17:55","105.9664","87.1","214.17","428","60.0","32"
"06/08/12 09:22:55","105.972","61.2","214.61","314","60.0","32"
"06/08/12 09:27:55","105.9761","55.3","214.08","128","60.0","32"
"06/08/12 09:32:55","105.9804","49.5","212.81","380","60.0","32"
"06/08/12 09:37:55","105.9846","49.8","213.17","377","60.0","31"
"06/08/12 09:42:55","105.9886","55.1","213.28","133","60.03","31"
"06/08/12 09:47:55","105.9934","47.7","213.51","368","60.0","31"
"06/08/12 09:52:54","105.9975","54.8","215.38","204","60.0","30"
"06/08/12 09:57:56","106.0025","65.1","216.21","331","60.03","30"
"06/08/12 10:02:55","106.0078","73.3","215.34","366","60.03","30"
"06/08/12 10:07:55","106.0142","110.8","215.9","525","59.96","30"
"06/08/12 10:12:55","106.0212","72.8","214.62","369","60.0","31"
"06/08/12 10:17:54","106.0262","39.5","214.14","211","60.03","31"
"06/08/12 10:22:54","106.0297","39.7","210.53","98","60.03","31"
"06/08/12 10:27:55","106.0327","38.1","214.11","144","60.03","30"
"06/08/12 10:32:54","106.0351","29.3","214.59","174","60.0","30"
"06/08/12 10:37:56","106.0384","46.0","213.83","341","60.03","30"
"06/08/12 10:42:55","106.042","40.2","213.76","401","60.0","30"
"06/08/12 10:47:56","106.0457","46.2","214.0","413","60.03","29"
"06/08/12 10:52:56","106.0494","53.2","213.66","367","60.0","29"
"06/08/12 10:57:55","106.0528","35.6","214.17","285","60.03","29"
"06/08/12 11:02:55","106.0555","26.9","213.99","169","60.03","29"
"06/08/12 11:07:55","106.0581","32.5","209.89","259","60.03","29"
"06/08/12 11:12:56","106.0612","35.6","215.88","322","60.03","29"
"06/08/12 11:17:55","106.0642","38.3","215.38","342","60.0","29"
"06/08/12 11:22:56","106.0683","63.2","215.06","324","60.0","29"
"06/08/12 11:27:55","106.0734","65.7","214.9","336","60.03","29"
"06/08/12 11:32:56","106.0807","102.5","211.67","497","60.0","30"
"06/08/12 11:37:55","106.088","78.4","214.9","390","60.03","30"
"06/08/12 11:42:55","106.0943","78.4","214.71","384","59.96","31"
"06/08/12 11:47:55","106.0996","54.3","215.64","158","60.0","31"
"06/08/12 11:52:56","106.1036","55.2","214.8","227","60.03","30"
"06/08/12 11:57:56","106.109","61.5","216.68","313","60.03","30"
"06/08/12 12:02:56","106.1125","46.1","215.05","298","60.0","30"
"06/08/12 12:07:55","106.1164","57.1","214.67","303","60.03","30"
"06/08/12 12:12:55","106.1206","47.6","214.0","143","60.0","30"
"06/08/12 12:17:55","106.1239","18.9","213.32","201","60.0","29"
"06/08/12 12:22:55","106.1251","12.0","213.51","62","60.03","29"
"06/08/12 12:27:55","106.1262","12.4","214.28","15","60.03","28"
"06/08/12 12:32:54","106.1288","48.8","214.13","159","60.0","28"
"06/08/12 12:37:55","106.1326","59.5","214.69","193","60.0","28"
"06/08/12 12:42:55","106.1366","42.3","215.23","391","60.03","28"
"06/08/12 12:47:55","106.1404","49.5","214.46","333","60.0","28"
"06/08/12 12:52:55","106.1435","43.6","214.19","332","60.03","28"
"06/08/12 12:57:55","106.1463","27.9","214.26","220","60.0","28"
"06/08/12 13:02:55","106.1487","31.8","214.86","225","60.0","27"
"06/08/12 13:07:56","106.1514","33.5","215.15","164","60.03","27"
"06/08/12 13:12:54","106.1547","60.1","215.26","115","60.0","27"
"06/08/12 13:17:54","106.159","63.2","215.34","365","60.0","27"
"06/08/12 13:22:55","106.1628","36.7","215.27","97","60.03","27"
"06/08/12 13:27:55","106.1666","55.0","214.44","113","60.0","27"
"06/08/12 13:32:55","106.1702","31.5","214.38","99","60.03","27"
"06/08/12 13:37:55","106.1722","18.9","213.71","106","60.03","27"
"06/08/12 13:42:56","106.1744","25.6","215.16","196","60.03","26"
"06/08/12 13:47:56","106.1767","36.1","214.29","250","60.0","26"
"06/08/12 13:52:54","106.1793","43.3","214.19","333","60.0","26"
"06/08/12 13:57:55","106.1836","66.5","214.92","341","60.07","26"
"06/08/12 14:02:55","106.1895","78.5","215.05","389","60.03","26"
"06/08/12 14:07:54","106.1959","106.4","215.82","512","60.03","26"
"06/08/12 14:12:56","106.2023","80.6","214.62","402","60.03","27"
"06/08/12 14:17:55","106.2098","70.2","213.9","357","60.03","28"
"06/08/12 14:22:56","106.216","64.6","214.58","327","60.03","29"
"06/08/12 14:27:55","106.2189","14.8","213.78","15","60.03","28"
"06/08/12 14:32:56","106.2195","0.0","213.39","0","60.0","28"
"06/08/12 14:37:56","106.2199","9.1","214.15","106","59.96","26"
"06/08/12 14:42:56","106.2219","20.4","214.29","13","60.03","25"
"06/08/12 14:47:58","106.2256","71.9","214.85","363","60.0","25"
"06/08/12 14:52:54","106.2321","105.1","215.72","504","60.03","25"
"06/08/12 14:57:55","106.2381","72.1","216.03","361","60.0","25"
"06/08/12 15:02:55","106.2441","76.9","214.53","381","60.03","26"
"06/08/12 15:07:55","106.2497","49.7","213.93","221","60.03","26"
"06/08/12 15:12:55","106.2535","40.2","214.68","383","60.0","26"
"06/08/12 15:17:55","106.2581","61.2","214.53","313","60.03","26"
"06/08/12 15:22:54","106.2621","54.2","214.02","271","60.03","26"
"06/08/12 15:27:55","106.2706","158.8","216.31","732","60.03","27"
"06/08/12 15:32:55","106.2821","137.1","216.52","639","60.03","27"
"06/08/12 15:37:55","106.2911","77.6","214.94","386","60.0","28"
"06/08/12 15:42:55","106.2963","64.8","214.76","331","60.0","27"
"06/08/12 15:47:54","106.3011","62.8","213.82","254","60.03","27"
"06/08/12 15:52:56","106.3052","64.7","213.82","389","60.03","27"
"06/08/12 15:57:56","106.3094","53.5","214.37","76","60.03","27"
"06/08/12 16:02:55","106.3132","63.6","214.86","328","60.03","26"
"06/08/12 16:07:56","106.3201","90.8","215.0","443","60.0","26"
"06/08/12 16:12:55","106.3282","133.6","216.37","625","60.0","27"
"06/08/12 16:17:55","106.3368","53.4","215.33","109","60.0","27"
"06/08/12 16:22:55","106.3405","51.5","214.09","415","60.0","27"
"06/08/12 16:27:54","106.345","73.6","215.36","366","60.0","26"
"06/08/12 16:32:55","106.3493","68.6","213.63","348","60.0","26"
"06/08/12 16:37:55","106.3571","114.5","215.84","542","60.0","26"
"06/08/12 16:42:56","106.3655","109.2","216.29","520","60.03","26"
"06/08/12 16:47:56","106.3722","46.2","214.48","319","60.0","26"
"06/08/12 16:52:55","106.3784","70.6","215.28","352","60.03","26"
"06/08/12 16:57:55","106.3825","28.0","215.24","95","60.0","26"
"06/08/12 17:02:55","106.3848","25.1","215.0","16","60.03","25"
"06/08/12 17:07:56","106.3888","55.2","215.4","100","60.0","25"
"06/08/12 17:12:55","106.3939","43.6","215.21","104","60.0","25"
"06/08/12 17:17:54","106.3989","45.8","216.0","387","60.0","25"
"06/08/12 17:22:56","106.4038","65.5","216.42","333","60.03","25"
"06/08/12 17:27:55","106.4087","65.8","215.09","333","60.0","25"
"06/08/12 17:32:56","106.4132","46.6","215.34","107","60.0","24"
"06/08/12 17:37:55","106.4175","61.1","215.33","324","60.07","25"
"06/08/12 17:42:56","106.4214","46.1","215.52","402","60.0","25"
"06/08/12 17:47:56","106.4249","48.5","215.09","118","60.03","24"
"06/08/12 17:52:55","106.428","36.0","214.37","264","60.0","24"
"06/08/12 17:57:56","106.4298","14.6","214.91","19","60.03","24"
"06/08/12 18:02:55","106.4319","45.0","215.56","348","60.03","24"
"06/08/12 18:07:56","106.4342","37.5","215.6","274","60.0","24"
"06/08/12 18:12:55","106.4373","34.7","213.53","95","60.0","23"
"06/08/12 18:17:55","106.4402","27.9","213.26","163","60.03","24"
"06/08/12 18:22:55","106.4423","34.4","214.09","331","60.03","24"
"06/08/12 18:27:56","106.4442","30.0","214.27","114","60.0","24"
"06/08/12 18:32:55","106.4455","17.5","213.74","6","60.03","24"
"06/08/12 18:37:56","106.4469","15.4","213.51","32","60.03","24"
"06/08/12 18:42:56","106.448","16.5","213.21","2","60.03","23"
"06/08/12 18:47:56","106.4488","4.8","212.95","108","60.07","23"
"06/08/12 18:52:56","106.4494","11.0","213.22","5","60.03","23"
"06/08/12 18:57:55","106.4501","14.7","212.99","7","60.03","22"
"06/08/12 19:02:56","106.4513","15.6","213.34","163","60.03","22"
"06/08/12 19:07:55","106.4525","15.7","213.17","0","60.03","22"
"06/08/12 19:12:56","106.4531","14.1","213.39","16","60.0","22"
"06/08/12 19:17:55","106.4537","0.0","213.45","0","60.03","22"
"06/08/12 19:22:56","106.454","0.0","212.78","0","60.0","22"
"06/08/12 19:47:56","106.4547","0.0","212.3","0","60.03","21"
"06/08/12 19:52:55","106.4552","6.2","212.56","193","60.03","21"
"06/08/12 19:57:55","106.4556","6.0","212.61","127","60.0","21"
"06/08/12 20:02:56","106.456","0.0","212.65","0","60.0","20"
"06/08/12 20:07:56","106.4563","11.4","213.06","1","60.0","20"
"06/09/12 06:12:57","106.4578","14.2","215.17","34","60.03","19"
"06/09/12 06:17:57","106.4583","0.0","214.03","103","60.03","19"
"06/09/12 06:22:56","106.4589","0.0","213.81","206","60.03","20"
"06/09/12 06:27:55","106.4597","18.9","213.75","112","60.0","20"
"06/09/12 06:32:56","106.4607","15.2","213.55","10","60.03","20"
"06/09/12 06:37:56","106.4617","10.4","213.82","1","60.03","20"
"06/09/12 06:42:55","106.4628","14.7","213.72","162","60.0","20"
"06/09/12 06:47:57","106.4639","13.1","213.88","93","60.0","21"
"06/09/12 06:52:56","106.4652","17.1","213.49","56","60.0","21"
"06/09/12 06:57:56","106.4668","14.9","213.46","13","60.03","22"
"06/09/12 07:02:56","106.4688","24.9","213.71","127","60.0","22"
"06/09/12 07:07:55","106.4708","44.2","214.27","324","60.0","22"
"06/09/12 07:12:56","106.4737","31.5","213.58","69","60.03","23"
"06/09/12 07:17:55","106.4753","37.2","212.94","265","60.03","23"
"06/09/12 07:22:55","106.4782","36.0","213.11","240","60.0","23"
"06/09/12 07:27:55","106.4801","40.4","214.28","224","60.0","24"
"06/09/12 07:32:56","106.4828","16.8","213.6","27","60.0","24"
"06/09/12 07:42:57","106.4881","43.6","215.13","353","60.0","24"
"06/09/12 07:47:57","106.4907","35.2","214.3","115","60.0","25"
"06/09/12 07:52:55","106.4927","20.7","214.29","16","60.0","25"
"06/09/12 07:57:56","106.4965","31.7","213.94","170","60.07","25"
"06/09/12 08:02:56","106.4998","84.2","214.82","416","60.0","26"
"06/09/12 08:07:55","106.5027","50.1","213.6","253","60.0","26"
"06/09/12 08:12:56","106.5069","85.4","215.17","419","60.03","26"
"06/09/12 08:17:55","106.5111","26.7","213.34","96","59.96","27"
"06/09/12 08:22:55","106.5176","88.4","214.62","431","60.0","28"
"06/09/12 08:27:57","106.5238","50.9","213.66","223","60.03","28"
"06/09/12 08:32:55","106.5288","103.4","214.78","496","60.03","29"
"06/09/12 08:37:56","106.5341","32.5","213.26","292","60.0","30"
"06/09/12 08:42:57","106.5401","106.1","214.67","506","60.0","30"
"06/09/12 08:47:56","106.5485","79.3","214.91","394","60.0","31"
"06/09/12 08:52:56","106.5558","113.5","215.14","541","60.0","31"
"06/09/12 08:57:56","106.5632","119.8","214.98","567","60.03","32"
"06/09/12 09:02:55","106.572","114.3","215.19","546","60.0","32"
"06/09/12 09:07:55","106.58","34.4","213.83","222","60.0","32"
"06/09/12 09:12:55","106.5889","116.4","215.74","551","60.03","32"
"06/09/12 09:17:55","106.598","119.0","216.3","558","60.03","33"
"06/09/12 09:22:56","106.6073","121.1","216.09","566","60.0","34"
"06/09/12 09:27:56","106.6168","123.8","216.23","583","60.03","34"
"06/09/12 09:32:55","106.6266","125.6","216.19","592","60.03","35"
"06/09/12 09:37:58","106.6366","128.7","215.28","608","60.0","35"
"06/09/12 09:42:56","106.6467","130.8","215.55","615","60.0","36"
"06/09/12 09:47:56","106.6569","131.2","215.51","616","60.0","36"
"06/09/12 09:52:56","106.6671","133.4","215.94","628","60.03","36"
"06/09/12 09:57:55","106.6775","136.4","215.32","636","60.0","37"
"06/09/12 10:02:55","106.6881","139.2","215.8","654","60.0","37"
"06/09/12 10:07:56","106.6988","135.1","215.34","634","60.03","37"
"06/09/12 10:12:56","106.7092","137.3","215.01","641","60.0","37"
"06/09/12 10:17:55","106.7198","140.0","215.3","656","60.0","37"
"06/09/12 10:22:56","106.7308","140.8","215.36","656","60.0","38"
"06/09/12 10:27:56","106.7421","139.8","215.88","655","60.03","38"
"06/09/12 10:32:56","106.7531","139.6","215.45","651","60.0","37"
"06/09/12 10:37:56","106.7641","143.3","215.35","669","60.0","38"
"06/09/12 10:42:56","106.7752","149.3","216.16","690","60.03","38"
"06/09/12 10:47:55","106.7869","148.5","216.19","689","60.0","38"
"06/09/12 10:52:55","106.7988","155.6","216.48","721","60.03","38"
"06/09/12 10:57:56","106.811","157.2","216.66","729","60.03","38"
"06/09/12 11:02:55","106.8235","157.6","217.18","725","60.0","39"
"06/09/12 11:07:55","106.8361","160.9","216.65","740","60.0","39"
"06/09/12 11:12:56","106.8485","159.5","216.33","730","60.0","40"
"06/09/12 11:17:55","106.861","161.9","216.63","748","60.03","40"
"06/09/12 11:22:55","106.8739","130.4","216.05","620","60.03","40"
"06/09/12 11:27:57","106.8857","191.0","217.37","867","60.03","40"
"06/09/12 11:32:56","106.8977","104.3","215.33","495","60.03","40"
"06/09/12 11:37:56","106.9106","166.1","216.89","765","60.0","40"
"06/09/12 11:42:56","106.9231","157.7","216.91","729","60.0","40"
"06/09/12 11:47:56","106.9355","159.9","216.32","733","60.03","40"
"06/09/12 11:52:56","106.9477","157.2","216.6","725","60.0","40"
"06/09/12 11:57:56","106.9598","161.5","216.7","743","60.03","40"
"06/09/12 12:02:56","106.9723","158.2","217.31","730","60.03","40"
"06/09/12 12:07:56","106.9843","142.9","216.59","661","60.0","40"
"06/09/12 12:12:56","106.9953","136.6","216.62","636","60.0","39"
"06/09/12 12:17:55","107.007","73.6","214.24","367","60.0","39"
"06/09/12 12:22:55","107.019","152.8","217.11","698","60.03","40"
"06/09/12 12:27:56","107.0316","161.0","216.73","740","60.03","40"
"06/09/12 12:32:57","107.0443","96.3","215.39","463","60.03","40"
"06/09/12 12:37:55","107.0555","110.3","215.87","523","60.0","40"
"06/09/12 12:42:57","107.0653","168.4","217.69","766","60.03","40"
"06/09/12 12:47:56","107.0768","168.2","217.48","768","60.03","39"
"06/09/12 12:52:55","107.0873","177.9","216.97","813","60.0","39"
"06/09/12 12:57:55","107.0999","167.6","216.97","770","60.0","39"
"06/09/12 13:02:55","107.1129","165.5","216.27","768","60.03","39"
"06/09/12 13:07:55","107.1255","166.8","216.86","765","60.0","39"
"06/09/12 13:12:55","107.1384","162.2","216.59","742","60.0","40"
"06/09/12 13:17:56","107.151","160.3","217.65","733","60.03","40"
"06/09/12 13:22:56","107.1634","159.6","216.97","736","60.03","40"
"06/09/12 13:27:57","107.1755","161.0","216.9","738","60.03","40"
"06/09/12 13:32:56","107.1878","160.4","216.8","740","60.0","40"
"06/09/12 13:37:56","107.2004","156.6","217.19","725","60.03","40"
"06/09/12 13:42:56","107.2127","156.5","216.63","722","60.0","41"
"06/09/12 13:47:57","107.225","157.0","216.05","724","60.03","41"
"06/09/12 13:52:57","107.2371","155.2","216.57","715","60.0","41"
"06/09/12 13:57:56","107.249","153.2","216.61","710","60.03","41"
"06/09/12 14:02:56","107.261","154.6","217.02","715","60.03","41"
"06/09/12 14:07:56","107.273","154.3","216.99","711","60.03","41"
"06/09/12 14:12:57","107.2849","148.6","216.73","687","60.0","41"
"06/09/12 14:17:56","107.2966","153.6","216.24","710","60.03","42"
"06/09/12 14:22:55","107.3084","150.7","215.67","699","60.0","42"
"06/09/12 14:27:57","107.32","147.5","216.55","688","60.0","42"
"06/09/12 14:32:57","107.3313","140.3","216.58","654","60.0","42"
"06/09/12 14:37:55","107.3424","142.8","215.38","669","60.0","42"
"06/09/12 14:42:55","107.3534","140.0","215.29","656","60.0","43"
"06/09/12 14:47:56","107.3642","135.2","215.44","634","60.0","42"
"06/09/12 14:52:56","107.3749","139.9","215.73","655","60.0","43"
"06/09/12 14:57:55","107.3857","142.9","215.35","666","60.0","43"
"06/09/12 15:02:56","107.3968","137.5","215.68","645","60.0","43"
"06/09/12 15:07:57","107.4067","116.1","215.08","552","60.0","43"
"06/09/12 15:12:56","107.4151","103.1","214.27","497","60.03","43"
"06/09/12 15:17:55","107.424","117.6","214.53","560","60.0","43"
"06/09/12 15:22:57","107.4334","108.6","215.06","522","60.0","42"
"06/09/12 15:27:55","107.4405","71.6","213.71","359","60.0","42"
"06/09/12 15:32:56","107.4469","84.6","214.11","414","60.0","41"
"06/09/12 15:37:55","107.4538","97.9","214.08","476","60.0","41"
"06/09/12 15:42:57","107.4631","120.8","215.05","572","60.0","41"
"06/09/12 15:47:56","107.472","109.1","215.55","520","60.03","41"
"06/09/12 15:52:56","107.48","99.6","214.9","479","60.0","41"
"06/09/12 15:57:55","107.4868","78.9","214.39","395","60.03","40"
"06/09/12 16:02:56","107.4935","94.4","215.34","458","60.03","38"
"06/09/12 16:07:57","107.5022","116.7","215.22","554","60.03","38"
"06/09/12 16:12:56","107.5106","104.4","214.79","501","60.0","37"
"06/09/12 16:17:55","107.5187","107.4","214.64","513","59.96","35"
"06/09/12 16:22:56","107.5267","102.6","215.4","495","60.0","34"
"06/09/12 16:27:56","107.5341","92.8","214.9","451","60.03","33"
"06/09/12 16:32:56","107.5418","100.9","214.77","486","60.03","33"
"06/09/12 16:37:56","107.549","71.6","213.91","361","60.03","32"
"06/09/12 16:42:56","107.5558","94.8","214.58","458","60.03","32"
"06/09/12 16:47:56","107.5614","75.4","214.78","374","60.0","32"
"06/09/12 16:52:56","107.5677","93.4","214.83","453","60.03","31"
"06/09/12 16:57:56","107.5748","88.1","214.56","431","60.0","31"
"06/09/12 17:02:56","107.5813","79.7","215.55","394","60.03","30"
"06/09/12 17:07:57","107.5872","73.7","214.73","368","60.0","30"
"06/09/12 17:12:56","107.5927","67.7","215.31","339","60.03","29"
"06/09/12 17:17:56","107.5978","64.6","214.83","328","60.03","29"
"06/09/12 17:22:56","107.6026","67.0","215.54","183","60.03","28"
"06/09/12 17:27:56","107.6068","50.2","214.74","349","60.03","28"
"06/09/12 17:32:57","107.6108","38.9","215.09","81","60.07","27"
"06/09/12 17:37:56","107.6148","46.8","214.03","161","60.03","27"
"06/09/12 17:42:55","107.6184","50.8","213.58","253","60.03","27"
"06/09/12 17:47:55","107.6217","35.0","213.63","281","60.03","26"
"06/09/12 17:52:56","107.6247","37.6","213.47","324","60.07","26"
"06/09/12 17:57:56","107.6274","38.2","213.89","270","59.96","26"
"06/09/12 18:02:57","107.6299","34.2","213.58","231","60.07","25"
"06/09/12 18:07:55","107.6321","31.0","213.57","35","60.03","25"
"06/09/12 18:12:56","107.6341","24.6","213.38","269","60.0","25"
"06/09/12 18:17:57","107.6357","17.8","213.89","257","60.0","25"
"06/09/12 18:22:56","107.6372","20.3","213.22","159","60.03","25"
"06/09/12 18:27:55","107.6385","23.0","213.74","175","60.03","25"
"06/09/12 18:32:58","107.6396","15.1","213.15","55","60.0","25"
"06/09/12 18:37:57","107.6406","14.2","213.87","23","60.03","25"
"06/09/12 18:42:56","107.6414","13.2","212.87","8","60.03","25"
"06/09/12 18:47:57","107.642","13.5","213.25","4","60.03","25"
"06/09/12 18:52:55","107.6426","12.9","212.67","156","60.03","25"
"06/09/12 18:57:56","107.643","0.0","213.46","0","59.96","25"
"06/09/12 19:02:57","107.6435","10.4","213.76","31","60.03","25"
"06/09/12 19:07:55","107.6438","0.0","213.44","0","60.03","25"
"06/09/12 19:12:56","107.6442","0.0","213.73","0","60.0","25"
"06/09/12 19:17:57","107.6445","14.4","214.11","72","60.0","25"
"06/09/12 19:27:55","107.645","13.0","213.81","1","60.03","24"
"06/10/12 06:22:13","107.6461","0.0","213.01","140","60.03","23"
"06/10/12 06:27:14","107.6468","12.5","213.81","10","60.03","23"
"06/10/12 06:32:14","107.6476","14.3","214.1","5","60.03","23"
"06/10/12 06:37:15","107.6487","18.5","213.91","131","60.03","24"
"06/10/12 06:42:15","107.6498","23.2","213.54","256","60.0","24"
"06/10/12 06:47:13","107.6513","14.4","213.35","238","60.03","24"
"06/10/12 06:52:13","107.6529","24.4","213.01","43","60.03","24"
"06/10/12 06:57:15","107.6548","24.4","213.58","331","60.03","25"
"06/10/12 07:02:14","107.6569","32.6","213.2","192","60.0","25"
"06/10/12 07:07:14","107.6569","28.7","212.89","110","60.03","25"
"06/10/12 07:12:13","107.6595","31.7","213.89","250","60.0","25"
"06/10/12 07:17:14","107.6625","35.5","213.48","113","60.03","26"
"06/10/12 07:22:14","107.6658","41.6","213.27","376","60.0","26"
"06/10/12 07:27:14","107.6694","40.4","213.61","277","60.0","26"
"06/10/12 07:32:14","107.6731","48.8","213.08","157","60.03","27"
"06/10/12 07:37:14","107.6771","64.8","213.98","267","60.0","27"
"06/10/12 07:42:14","107.6811","56.9","213.67","101","60.03","27"
"06/10/12 07:47:15","107.6852","56.7","213.26","323","60.0","28"
"06/10/12 07:52:13","107.6891","54.4","213.54","345","60.03","28"
"06/10/12 07:57:13","107.6937","70.0","213.75","355","60.03","29"
"06/10/12 08:02:14","107.6993","74.5","213.73","374","60.0","29"
"06/10/12 08:07:14","107.7053","79.0","214.3","389","60.0","30"
"06/10/12 08:12:15","107.7115","83.4","213.98","410","60.0","30"
"06/10/12 08:17:14","107.7181","83.6","215.48","406","59.96","31"
"06/10/12 08:22:14","107.7242","77.3","215.33","382","59.96","32"
"06/10/12 08:27:15","107.7306","80.4","215.2","398","60.0","32"
"06/10/12 08:32:13","107.737","89.8","215.06","438","60.0","32"
"06/10/12 08:37:15","107.7443","96.0","214.91","466","60.0","32"
"06/10/12 08:42:14","107.7519","96.0","216.25","462","60.03","33"
"06/10/12 08:47:14","107.7591","91.3","215.68","443","60.0","33"
"06/10/12 08:52:14","107.7666","103.2","215.55","495","60.0","33"
"06/10/12 08:57:15","107.775","109.1","216.16","518","60.03","33"
"06/10/12 09:02:14","107.7834","109.7","216.22","520","60.0","34"
"06/10/12 09:07:14","107.7921","114.7","216.52","545","60.0","34"
"06/10/12 09:12:14","107.8011","118.1","216.12","560","60.0","34"
"06/10/12 09:17:15","107.8105","121.2","215.97","570","60.0","34"
"06/10/12 09:22:15","107.82","123.7","216.01","583","60.03","35"
"06/10/12 09:27:14","107.8297","126.1","216.41","591","60.0","35"
"06/10/12 09:32:14","107.8397","130.5","216.11","609","60.0","35"
"06/10/12 09:37:13","107.85","132.5","215.84","621","60.0","36"